Location: Newark
(33.6439°N, 114.9881°W)
Time: 00:20:31
(UTC+00:00)

Tiros 1 - Pass Details

Date: 30 July 2019
Orbit: 630 x 664 km, 48.4° (Epoch: 19 August)

Event Time Altitude Azimuth Distance (km) Brightness Sun altitude
Rises 16:05:54 0° 243° (WSW) 2,950 10.1 38.8°
Reaches altitude 10° 16:08:16 10° 249° (WSW) 2,047 9.4 39.3°
Maximum altitude 16:12:53 53° 326° (NW) 806 7.9 40.3°
Drops below altitude 10° 16:17:34 10° 43° (NE) 2,073 10.3 41.2°
Sets 16:19:59 0° 48° (NE) 2,991 11.0 41.7°
